This is the latest recevied weather packets stored in our database for station/object IR3AS. If no packets are shown the sender has not sent any weather packets the latest 1 day(s).
| Time | Temp. | Humidity | Pressure | Rain* | Wind** | Luminosity | Snow |
|---|---|---|---|---|---|---|---|
| 1777927252 | 4.44° C | 90% | 858.8 hPa | 0 mm | 1.34 m/s, 315° | - | - |
| 1777926952 | 4.44° C | 90% | 859.3 hPa | 0 mm | 1.34 m/s, 292° | - | - |
| 1777926652 | 4.44° C | 89% | 858.5 hPa | 0 mm | 1.34 m/s, 315° | - | - |
| 1777926352 | 4.44° C | 89% | 858.8 hPa | 0 mm | 1.34 m/s, 315° | - | - |
| 1777926052 | 4.44° C | 89% | 858.8 hPa | 0 mm | 1.34 m/s, 315° | - | - |
| 1777925752 | 4.44° C | 89% | 859.8 hPa | 0 mm | 1.34 m/s, 292° | - | - |
| 1777925452 | 4.44° C | 88% | 859.7 hPa | 0 mm | 1.34 m/s, 292° | - | - |
| 1777925152 | 4.44° C | 88% | 859.4 hPa | 0 mm | 1.34 m/s, 292° | - | - |
| 1777924885 | 4.44° C | 88% | 859.8 hPa | 0 mm | 1.34 m/s, 292° | - | - |
| 1777924852 | 4.44° C | 88% | 859.8 hPa | 0 mm | 1.34 m/s, 292° | - | - |
| 1777924552 | 4.44° C | 87% | 859.8 hPa | 0 mm | 1.34 m/s, 315° | - | - |
| 1777924252 | 4.44° C | 86% | 859.8 hPa | 0 mm | 0.89 m/s, 315° | - | - |
| 1777923952 | 4.44° C | 85% | 860.2 hPa | 0 mm | 1.79 m/s, 292° | - | - |
| 1777923652 | 4.44° C | 83% | 859.9 hPa | 0 mm | 1.34 m/s, 292° | - | - |
| 1777923352 | 4.44° C | 83% | 859.5 hPa | 0 mm | 1.79 m/s, 315° | - | - |
| 1777923052 | 5° C | 83% | 859.7 hPa | 0 mm | 1.79 m/s, 292° | - | - |
| 1777922752 | 5° C | 82% | 859.5 hPa | 0 mm | 1.79 m/s, 292° | - | - |
| 1777922452 | 5° C | 81% | 859.2 hPa | 0 mm | 1.34 m/s, 315° | - | - |
| 1777922152 | 5° C | 80% | 859.8 hPa | 0 mm | 1.34 m/s, 292° | - | - |
| 1777921852 | 5° C | 81% | 859.8 hPa | 0 mm | 1.34 m/s, 315° | - | - |
| 1777921553 | 5° C | 79% | 859.1 hPa | 0 mm | 0.89 m/s, 315° | - | - |
| 1777921253 | 5° C | 80% | 859.5 hPa | 0 mm | 0.89 m/s, 315° | - | - |
| 1777920952 | 5° C | 80% | 859.7 hPa | 0 mm | 0.89 m/s, 315° | - | - |
| 1777920653 | 5° C | 79% | 859.2 hPa | 0 mm | 4.47 m/s, 315° | - | - |
| 1777920353 | 5° C | 79% | 859.6 hPa | 0 mm | 0.89 m/s, 292° | - | - |
* Rain latest hour (hover to see other rain measurements)
** Current wind speed in m/s (hover to see current wind gust speed)